[[{"header":{"parameterUnit":"m.s-1","parameterCategory":2,"la1":30.2991,"la2":30.254,"lo1":-89.0895,"lo2":-89.0444,"dy":0.0017,"dx":0.0017,"nx":28,"ny":28,"refTime":"2023-04-29T21:00:00:Z","depth":"0","parameterNumber":2,"parameterNumberName":"U-component_of_CURRENTS"},"data":[0,0,0,0,0,0,0,0,0,0,0,0,0,0,0,0,0,0,0,0,0,0,0,0,0,0,0,0,0,0,0,0,0,0,0,0,0,0,0,0,0,0,0,0,0,0,0,0,0,0,0,0,0,0,0,0,0,0,0.5475,0.5475,0,0.5385,0.5384,0.5382,0.5301,0.5301,0.53,0.53,0.5298,0.5299,0.5299,0,0,0,0,0,0,0,0,0,0,0,0,0,0.5565,0.5564,0.5475,0.5475,0.5474,0.5386,0.5384,0.5382,0.5301,0.5301,0.53,0.53,0.5298,0.5299,0.5299,0,0,0,0,0,0,0,0,0,0,0,0,0,0.55,0.5563,0.5475,0.5428,0.5423,0.5386,0.5384,0.5381,0.5301,0.5301,0.53,0.5299,0.5298,0.5299,0.5299,0.5315,0,0,0.5301,0.5301,0,0,0,0,0,0,0,0,0.5504,0.5496,0.5435,0.5431,0.5426,0.5359,0.5415,0.5366,0.5301,0.5341,0.53,0.5299,0.5331,0.5329,0.5304,0.5315,0.5315,0.5301,0.5301,0.5302,0.5302,0,0,0,0,0,0,0,0.5509,0.55,0.5434,0.5435,0.5429,0.5407,0.5396,0.5404,0.5338,0.5338,0.5333,0.5333,0.5328,0.5303,0.5304,0.5315,0.5301,0.5301,0.5302,0.5302,0.5327,0.5327,0,0,0,0,0,0,0.5533,0.5504,0.5437,0.5432,0.5471,0.5406,0.5394,0.5376,0.5336,0.533,0.5333,0.5329,0.5303,0.5303,0.5304,0.5323,0.5302,0.5302,0.5302,0.5327,0.5327,0.5327,0,0,0,0,0,0,0.5535,0.5527,0.544,0.5472,0.546,0.5406,0.5386,0.5375,0.5352,0.5333,0.5327,0.5323,0.5302,0.5303,0.5302,0.5323,0.5302,0.5303,0.5326,0.5327,0.5327,0.5361,0,0,0,0,0,0,0.5537,0.5528,0.552,0.5473,0.5459,0.5428,0.5387,0.5374,0.5356,0.5349,0.5323,0.5321,0.5302,0.5302,0.5303,0.5323,0.5303,0.5326,0.5326,0.5327,0.536,0.5363,0.5366,0,0,0,0,0,0.554,0.552,0.5519,0.5512,0.545,0.5429,0.5419,0.5375,0.5356,0.5351,0.5324,0.5322,0.5307,0.5302,0.5304,0.5324,0.5325,0.5326,0.5327,0.5359,0.5362,0.5366,0,0,0,0,0,0,0.5523,0.5509,0.5507,0.5475,0.5467,0.5418,0.5396,0.5385,0.5355,0.5347,0.5325,0.5322,0.5336,0.5323,0.5318,0.5332,0.5318,0.5319,0.5341,0.5345,0.5348,0.5384,0.5304,0,0,0,0,0,0.5529,0.552,0.5508,0.548,0.5478,0.5446,0.5431,0.5415,0.5387,0.537,0.535,0.5335,0.534,0.5335,0.5335,0.5341,0.5371,0.5354,0.5357,0.536,0.539,0.5479,0.5495,0.533,0.533,0.533,0,0,0.5509,0.5503,0.5493,0.548,0.5457,0.5454,0.5431,0.5414,0.5411,0.5381,0.5355,0.5354,0.5347,0.5349,0.5354,0.5339,0.5409,0.5361,0.5363,0.5393,0.5482,0.5499,0.5513,0.533,0.533,0.533,0,0,0.5464,0.5466,0.5448,0.5456,0.5454,0.5453,0.546,0.5431,0.5416,0.5408,0.5392,0.5405,0.5382,0.5388,0.5388,0.5413,0.5433,0.5406,0.5441,0.5527,0.5542,0.5556,0.5564,0.5579,0.5395,0.5395,0.5395,0,0.5419,0.5421,0.5438,0.5432,0.5438,0.546,0.5453,0.5451,0.5426,0.5428,0.5406,0.5412,0.5407,0.5439,0.5441,0.5425,0.5454,0.5427,0.5535,0.555,0.5564,0.5569,0.5585,0.5396,0.5396,0.5396,0.5396,0,0.5389,0.5387,0.5375,0.5391,0.5408,0.5405,0.5434,0.5449,0.5448,0.5445,0.5472,0.5466,0.5476,0.5474,0.5464,0.5553,0.5532,0.5541,0.5533,0.5583,0.5583,0.5599,0.5399,0.5398,0.5398,0.5397,0,0,0.523,0.5332,0.5316,0.5331,0.5393,0.5384,0.5433,0.5466,0.5479,0.5489,0.5506,0.5531,0.5546,0.5551,0.5552,0.562,0.5721,0.5625,0.5629,0.5644,0.5869,0.569,0.569,0.5763,0.5767,0.577,0.581,0,0.5172,0.5192,0.5261,0.526,0.527,0.535,0.5385,0.5433,0.5468,0.5495,0.5543,0.5549,0.5569,0.5569,0.5658,0.5706,0.5774,0.5706,0.5809,0.5811,0.5658,0.5707,0.5503,0.551,0.5826,0.5829,0.5831,0,0.5087,0.5127,0.514,0.5218,0.5223,0.523,0.5308,0.5343,0.5439,0.547,0.5543,0.5575,0.5666,0.5676,0.5832,0.5791,0.5853,0.5892,0.5894,0.574,0.5665,0.5521,0.5527,0.5577,0.5856,0.5854,0.5852,0,0.4958,0.5014,0.5033,0.5054,0.5156,0.5162,0.5212,0.531,0.5322,0.5448,0.5462,0.5607,0.5618,0.5783,0.5848,0.5868,0.6,0.6029,0.5926,0.591,0.5762,0.5726,0.5845,0.6181,0.6181,0.6181,0.6181,0,0.4862,0.4849,0.4962,0.4952,0.4934,0.5055,0.5032,0.5127,0.5232,0.5238,0.5417,0.5438,0.5656,0.5737,0.5865,0.5904,0.6015,0.5949,0.593,0.5755,0.572,0.5775,0.578,0.6182,0.6182,0.6182,0.6182,0,0.4686,0.4785,0.476,0.4847,0.4858,0.4823,0.4869,0.4876,0.502,0.5047,0.5081,0.5288,0.5396,0.5559,0.5763,0.5836,0.5816,0.5934,0.5662,0.561,0.5556,0.5565,0.5326,0.5195,0.5858,0.5855,0.5851,0,0.4612,0.459,0.4611,0.4579,0.459,0.4574,0.4572,0.4722,0.4747,0.4929,0.4934,0.506,0.5114,0.5311,0.5439,0.5585,0.5604,0.5528,0.5549,0.5533,0.5536,0.531,0.5203,0.5352,0.5345,0.5339,0.5335,0,0.442,0.4408,0.4392,0.433,0.429,0.4261,0.4285,0.4275,0.447,0.4516,0.4597,0.4661,0.4828,0.4895,0.5081,0.5178,0.5309,0.5409,0.551,0.5241,0.4891,0.4759,0.5304,0.5283,0.5288,0.5292,0.5295,0.5297,0.422,0.4146,0.4114,0.4022,0.3995,0.3943,0.3858,0.3943,0.394,0.4038,0.4226,0.4316,0.459,0.4787,0.4795,0.4887,0.4858,0.4995,0.5033,0.4824,0.4616,0.499,0.4873,0.4876,0.4878,0.488,0.4882,0,0.3935,0.3892,0.3822,0.371,0.36,0.368,0.3656,0.3587,0.3522,0.3767,0.3819,0.4107,0.4234,0.4475,0.4679,0.4647,0.4411,0.4662,0.4415,0.4355,0.4838,0.4747,0.4453,0.4453,0.4453,0.4453,0.4453,0.4453,0.3772,0.3609,0.358,0.3328,0.3281,0.3101,0.3051,0.3041,0.3169,0.3299,0.3513,0.3722,0.4243,0.4651,0.4747,0.4633,0.4438,0.4162,0.4244,0.4783,0.4821,0.4857,0.4782,0.4499,0.4499,0.3567,0.3561,0.3557]},{"header":{"parameterUnit":"m.s-1","parameterCategory":2,"la1":30.2991,"la2":30.254,"lo1":-89.0895,"lo2":-89.0444,"dy":0.0017,"dx":0.0017,"nx":28,"ny":28,"refTime":"2023-04-29T21:00:00:Z","depth":"0","parameterNumber":3,"parameterNumberName":"V-component_of_CURRENTS"},"data":[0,0,0,0,0,0,0,0,0,0,0,0,0,0,0,0,0,0,0,0,0,0,0,0,0,0,0,0,0,0,0,0,0,0,0,0,0,0,0,0,0,0,0,0,0,0,0,0,0,0,0,0,0,0,0,0,0,0,-0.0698,-0.0699,0,-0.0816,-0.0818,-0.0819,-0.0919,-0.0921,-0.0922,-0.0923,-0.1082,-0.1085,-0.1088,0,0,0,0,0,0,0,0,0,0,0,0,0,-0.0613,-0.0614,-0.0698,-0.0699,-0.0701,-0.0816,-0.0818,-0.0819,-0.0919,-0.0921,-0.0922,-0.0924,-0.1081,-0.1085,-0.1088,0,0,0,0,0,0,0,0,0,0,0,0,0,-0.0681,-0.0614,-0.0697,-0.0766,-0.0773,-0.0816,-0.0818,-0.0819,-0.0919,-0.0921,-0.0923,-0.0924,-0.108,-0.1084,-0.1089,-0.1079,0,0,-0.1103,-0.1105,0,0,0,0,0,0,0,0,-0.0677,-0.0683,-0.0754,-0.0761,-0.077,-0.0857,-0.0847,-0.0909,-0.0918,-0.0862,-0.0923,-0.0925,-0.101,-0.1021,-0.1036,-0.1087,-0.1094,-0.1103,-0.1106,-0.1108,-0.1109,0,0,0,0,0,0,0,-0.0672,-0.0679,-0.0743,-0.0756,-0.0765,-0.081,-0.0821,-0.0859,-0.0923,-0.0867,-0.0875,-0.089,-0.1015,-0.1031,-0.104,-0.1096,-0.1103,-0.1107,-0.111,-0.1112,-0.1077,-0.1073,0,0,0,0,0,0,-0.0656,-0.0674,-0.0739,-0.0747,-0.0729,-0.081,-0.0822,-0.0825,-0.0922,-0.0939,-0.0888,-0.0894,-0.1022,-0.1035,-0.1046,-0.0981,-0.1108,-0.1112,-0.1115,-0.108,-0.1076,-0.1072,0,0,0,0,0,0,-0.0653,-0.066,-0.0734,-0.0716,-0.0729,-0.0809,-0.0812,-0.0827,-0.0844,-0.0939,-0.0956,-0.0892,-0.1024,-0.104,-0.1058,-0.0991,-0.1114,-0.1119,-0.1085,-0.1079,-0.1074,-0.0889,0,0,0,0,0,0,-0.065,-0.0658,-0.0646,-0.0714,-0.0729,-0.0739,-0.0811,-0.0828,-0.0852,-0.0861,-0.0947,-0.0964,-0.1027,-0.105,-0.1063,-0.0999,-0.1122,-0.1089,-0.1082,-0.1075,-0.09,-0.0878,-0.0859,0,0,0,0,0,-0.0646,-0.0608,-0.0644,-0.0653,-0.0713,-0.0738,-0.0748,-0.0812,-0.085,-0.0838,-0.0893,-0.0961,-0.1014,-0.1052,-0.1067,-0.1003,-0.1093,-0.1084,-0.1076,-0.0909,-0.0882,-0.0859,0,0,0,0,0,0,-0.0525,-0.0617,-0.0658,-0.064,-0.0683,-0.0755,-0.0747,-0.0797,-0.0831,-0.0834,-0.0932,-0.0951,-0.0935,-0.099,-0.1029,-0.0967,-0.1057,-0.1051,-0.0924,-0.09,-0.088,-0.0847,-0.1126,0,0,0,0,0,-0.0503,-0.0514,-0.0597,-0.057,-0.0596,-0.0671,-0.0688,-0.0728,-0.0774,-0.0792,-0.0853,-0.0895,-0.0909,-0.0924,-0.0953,-0.0931,-0.0988,-0.0891,-0.0871,-0.0853,-0.0832,-0.085,-0.083,-0.1044,-0.1045,-0.1045,0,0,-0.0434,-0.0493,-0.0489,-0.0549,-0.0589,-0.0585,-0.0684,-0.0689,-0.067,-0.0801,-0.0784,-0.0833,-0.0888,-0.0856,-0.0852,-0.0897,-0.0821,-0.0843,-0.0828,-0.0816,-0.0839,-0.0819,-0.08,-0.1039,-0.104,-0.1041,0,0,-0.0312,-0.0369,-0.0349,-0.0389,-0.0453,-0.0499,-0.0496,-0.0564,-0.0585,-0.0582,-0.0651,-0.0655,-0.0703,-0.0711,-0.0725,-0.0607,-0.0715,-0.0613,-0.0486,-0.0502,-0.0485,-0.0471,-0.0521,-0.0512,-0.0601,-0.06,-0.06,0,-0.0227,-0.0223,-0.0333,-0.0331,-0.0335,-0.0452,-0.0405,-0.0439,-0.0494,-0.0482,-0.0549,-0.0564,-0.0622,-0.0561,-0.0521,-0.0559,-0.0607,-0.0579,-0.0477,-0.0464,-0.0453,-0.0507,-0.0501,-0.059,-0.0592,-0.0593,-0.0594,0,-0.0105,-0.0106,-0.0088,-0.0133,-0.0147,-0.0122,-0.0197,-0.0198,-0.0245,-0.0279,-0.0249,-0.0326,-0.0333,-0.0341,-0.0404,-0.0326,-0.04,-0.0454,-0.0543,-0.042,-0.0486,-0.0482,-0.0576,-0.058,-0.0583,-0.0585,0,0,0.0113,0.0014,0.0029,0.003,-0.0041,-0.0027,0.0002,0.0008,0.0047,-0.0014,0.0043,0.0016,-0.0045,-0.0062,-0.0134,-0.015,-0.0124,-0.0259,-0.0265,-0.0316,-0.0187,-0.0213,-0.0214,-0.0171,-0.0169,-0.0167,-0.0268,0,0.0253,0.0299,0.0216,0.0302,0.032,0.0226,0.0267,0.0257,0.0219,0.0237,0.0169,0.0181,0.0065,0.0063,0.0037,-0.0086,-0.0105,-0.0094,-0.0292,-0.0298,-0.0342,-0.0205,-0.0165,-0.0248,-0.0265,-0.0265,-0.0264,0,0.0407,0.0409,0.0504,0.0491,0.0498,0.0535,0.058,0.0598,0.0574,0.0542,0.0526,0.0434,0.0414,0.0283,0.0153,0.0158,0.0016,-0.0095,-0.0102,-0.0186,-0.0315,-0.0371,-0.0242,-0.0452,-0.026,-0.0261,-0.0261,0,0.0608,0.062,0.0707,0.0704,0.0676,0.0725,0.0726,0.0715,0.0736,0.0733,0.0735,0.0674,0.0629,0.0477,0.023,0.0193,0.0056,-0.0029,-0.0183,-0.019,-0.022,-0.0232,-0.0319,-0.0102,-0.0102,-0.0101,-0.0101,0,0.0772,0.0836,0.0805,0.0851,0.0962,0.0899,0.1002,0.0987,0.098,0.1025,0.0906,0.0912,0.0671,0.0537,0.0315,0.0088,0.0121,-0.0125,-0.0191,-0.0155,-0.0158,-0.04,-0.0534,-0.0105,-0.0104,-0.0104,-0.0103,0,0.0924,0.092,0.1002,0.1025,0.1043,0.112,0.112,0.1174,0.1163,0.1214,0.1214,0.109,0.0923,0.0664,0.04,0.0199,-0.0145,-0.0115,-0.0072,-0.0128,-0.0455,-0.058,-0.0755,-0.0895,-0.0279,-0.028,-0.0281,0,0.0975,0.1042,0.1124,0.1176,0.1177,0.1251,0.1289,0.1275,0.1311,0.1318,0.1352,0.122,0.1136,0.075,0.0391,0.0043,-0.0193,-0.0163,-0.0206,-0.0426,-0.0615,-0.0712,-0.0825,-0.0193,-0.0193,-0.0193,-0.0193,0,0.1046,0.1094,0.1149,0.1274,0.1343,0.1403,0.1453,0.1513,0.1513,0.1561,0.1586,0.1536,0.1179,0.0866,0.0396,0.0132,-0.0303,-0.0174,-0.0397,-0.0525,-0.0639,-0.0821,-0.0215,-0.0192,-0.0192,-0.0192,-0.0192,-0.0192,0.1068,0.1122,0.1214,0.1326,0.1417,0.152,0.159,0.1653,0.1746,0.1843,0.1782,0.1809,0.1362,0.0737,0.0324,-0.0308,-0.0358,-0.0492,-0.0621,-0.0697,-0.0821,-0.0218,-0.0271,-0.0272,-0.0272,-0.0273,-0.0273,0,0.1049,0.1121,0.1236,0.1371,0.1474,0.1527,0.1661,0.1752,0.1885,0.2042,0.2086,0.2004,0.1384,0.0776,-0.0074,-0.0605,-0.0846,-0.091,-0.1035,-0.1132,-0.0577,-0.0561,-0.0682,-0.0682,-0.0682,-0.0682,-0.0681,-0.0681,0.1036,0.1122,0.1196,0.1365,0.1474,0.1623,0.1716,0.1898,0.2063,0.2326,0.2481,0.2539,0.222,0.0499,-0.066,-0.0987,-0.1406,-0.1496,-0.1738,-0.1348,-0.1319,-0.1291,-0.1305,-0.158,-0.1581,-0.2222,-0.2228,-0.2233]}],[{"header":{"parameterUnit":"m.s-1","parameterCategory":2,"la1":30.2991,"la2":30.254,"lo1":-89.0895,"lo2":-89.0444,"dy":0.0017,"dx":0.0017,"nx":28,"ny":28,"refTime":"2023-04-29T21:00:00:Z","depth":"2","parameterNumber":2,"parameterNumberName":"U-component_of_CURRENTS"},"data":[0,0,0,0,0,0,0,0,0,0,0,0,0,0,0,0,0,0,0,0,0,0,0,0,0,0,0,0,0,0,0,0,0,0,0,0,0,0,0,0,0,0,0,0,0,0,0,0,0,0,0,0,0,0,0,0,0,0,0.4833,0.4838,0,0.4975,0.4973,0.4971,0.4922,0.4923,0.4924,0.4925,0.4903,0.4901,0.49,0,0,0,0,0,0,0,0,0,0,0,0,0,0.4254,0.4263,0.4832,0.4838,0.4844,0.4975,0.4973,0.4971,0.4922,0.4923,0.4924,0.4926,0.4903,0.4902,0.49,0,0,0,0,0,0,0,0,0,0,0,0,0,0.442,0.4266,0.4831,0.4869,0.4877,0.4976,0.4973,0.497,0.4922,0.4923,0.4925,0.4926,0.4904,0.4902,0.4899,0.4856,0,0,0.4893,0.4892,0,0,0,0,0,0,0,0,0.4411,0.4435,0.4857,0.4867,0.4877,0.4972,0.4764,0.4939,0.4921,0.4857,0.4925,0.4927,0.4939,0.4934,0.4896,0.4855,0.4854,0.4892,0.4891,0.489,0.4889,0,0,0,0,0,0,0,0.4399,0.4428,0.4843,0.4865,0.4877,0.4792,0.4814,0.4792,0.485,0.4863,0.4871,0.4958,0.4937,0.4898,0.4895,0.4854,0.4892,0.489,0.4889,0.4888,0.4948,0.4951,0,0,0,0,0,0,0.4487,0.442,0.484,0.4852,0.4693,0.4805,0.4828,0.4903,0.4854,0.4863,0.4957,0.4956,0.4901,0.4898,0.4895,0.4962,0.489,0.4888,0.4887,0.4945,0.4949,0.4952,0,0,0,0,0,0,0.4473,0.4522,0.4835,0.4674,0.4714,0.4821,0.49,0.4906,0.4906,0.4936,0.4931,0.4962,0.4902,0.4898,0.4882,0.4957,0.4887,0.4885,0.4942,0.4946,0.495,0.5021,0,0,0,0,0,0,0.4455,0.4514,0.4622,0.4681,0.4729,0.4877,0.4905,0.4909,0.4978,0.4976,0.4939,0.4936,0.4903,0.4885,0.4879,0.4953,0.4883,0.4938,0.4944,0.4949,0.5015,0.5027,0.5038,0,0,0,0,0,0.4433,0.4604,0.4625,0.4681,0.4864,0.4881,0.4887,0.4937,0.4978,0.4941,0.494,0.4938,0.492,0.4882,0.4876,0.4951,0.4935,0.4942,0.4948,0.501,0.5025,0.5037,0,0,0,0,0,0,0.4421,0.4621,0.4644,0.487,0.4863,0.4889,0.4962,0.4957,0.4924,0.4952,0.4928,0.4922,0.4959,0.4936,0.4897,0.4993,0.4947,0.4953,0.4997,0.501,0.5022,0.5043,0.4881,0,0,0,0,0,0.4475,0.4635,0.4718,0.4875,0.4905,0.4916,0.4958,0.495,0.4953,0.4941,0.4928,0.4946,0.4975,0.4973,0.4975,0.4985,0.4996,0.5049,0.506,0.507,0.5087,0.5177,0.5198,0.4974,0.4974,0.4973,0,0,0.4497,0.4657,0.4733,0.4882,0.4903,0.4922,0.493,0.4984,0.4999,0.4948,0.4972,0.4976,0.4989,0.5017,0.5036,0.5006,0.5133,0.5078,0.5086,0.5099,0.5186,0.5208,0.5227,0.4978,0.4977,0.4977,0,0,0.4589,0.4762,0.4877,0.4883,0.4976,0.4981,0.5001,0.5008,0.5017,0.5018,0.5034,0.5066,0.5071,0.5095,0.5117,0.5192,0.5198,0.5224,0.5283,0.537,0.5388,0.5405,0.5411,0.5428,0.5221,0.5221,0.5221,0,0.4613,0.4772,0.4885,0.4953,0.5003,0.5009,0.5029,0.5038,0.5026,0.5051,0.5045,0.512,0.5123,0.5202,0.5238,0.5222,0.5245,0.5221,0.5384,0.5401,0.5417,0.5419,0.5437,0.5225,0.5224,0.5224,0.5224,0,0.4712,0.4825,0.4889,0.499,0.5033,0.5049,0.5093,0.5107,0.5152,0.5154,0.5231,0.5225,0.5268,0.5303,0.5293,0.5424,0.5392,0.5392,0.5343,0.5444,0.5439,0.5457,0.5231,0.5229,0.5228,0.5227,0,0,0.4724,0.4924,0.4913,0.4943,0.5046,0.5054,0.5151,0.5193,0.5242,0.5264,0.533,0.5407,0.5408,0.5436,0.5441,0.5517,0.5637,0.551,0.5513,0.5504,0.5786,0.5465,0.5452,0.5676,0.5681,0.5684,0.5722,0,0.4714,0.4848,0.4955,0.4983,0.5036,0.5096,0.5167,0.5221,0.5278,0.5327,0.5402,0.5442,0.5463,0.5474,0.5574,0.5613,0.5694,0.5624,0.5701,0.5702,0.5395,0.5465,0.5102,0.5081,0.5739,0.5742,0.5744,0,0.4722,0.4824,0.489,0.5003,0.5024,0.5035,0.5145,0.5195,0.5311,0.5363,0.5454,0.549,0.5597,0.5602,0.5763,0.572,0.5781,0.5816,0.5818,0.5509,0.5413,0.5097,0.5088,0.5772,0.577,0.5768,0.5766,0,0.4639,0.4754,0.4818,0.4837,0.4972,0.5002,0.5058,0.5183,0.5212,0.5356,0.5376,0.5541,0.5552,0.5721,0.5775,0.58,0.5923,0.5956,0.5728,0.5704,0.5401,0.534,0.6115,0.6115,0.6115,0.6115,0.6115,0,0.4602,0.4612,0.4758,0.4755,0.4769,0.4921,0.4925,0.5026,0.5143,0.5155,0.5346,0.5369,0.5591,0.5665,0.5794,0.5755,0.5938,0.5741,0.5705,0.5405,0.5346,0.596,0.5941,0.6116,0.6116,0.6116,0.6116,0,0.4452,0.4579,0.4598,0.4706,0.4724,0.4708,0.4762,0.4775,0.4933,0.4963,0.4999,0.521,0.5306,0.5466,0.5668,0.5659,0.5733,0.5687,0.5259,0.5169,0.5465,0.5451,0.5466,0.5456,0.5446,0.5439,0.5432,0,0.4397,0.4412,0.4462,0.4445,0.4458,0.446,0.4465,0.4625,0.4648,0.4835,0.4837,0.4954,0.4993,0.5109,0.5167,0.526,0.5486,0.4912,0.4894,0.5441,0.5407,0.5406,0.5404,0.4534,0.4521,0.451,0.4502,0,0.4227,0.4235,0.4234,0.4184,0.4162,0.414,0.4171,0.4162,0.4361,0.4398,0.4472,0.4525,0.4628,0.4517,0.4571,0.4613,0.4866,0.4682,0.5418,0.4707,0.4552,0.4521,0.4553,0.4405,0.4415,0.4422,0.4427,0.4431,0.4035,0.3956,0.3948,0.3869,0.3863,0.3822,0.3734,0.3804,0.3793,0.3826,0.4025,0.3967,0.408,0.3941,0.3897,0.3891,0.4253,0.4145,0.4186,0.4236,0.4074,0.3906,0.3605,0.361,0.3614,0.3618,0.3621,0,0.3738,0.3697,0.364,0.3553,0.3457,0.3545,0.353,0.3427,0.333,0.3411,0.3399,0.3125,0.3073,0.3228,0.3082,0.3107,0.3182,0.2993,0.3099,0.3194,0.328,0.3076,0.234,0.2336,0.2332,0.2328,0,0,0.3579,0.3416,0.3386,0.3172,0.3129,0.2945,0.2896,0.2793,0.2789,0.264,0.2573,0.2787,0.3022,0.2568,0.2587,0.2427,0.278,0.2334,0.3366,0.3578,0.3657,0.3951,0.3742,0,0,0,0,0]},{"header":{"parameterUnit":"m.s-1","parameterCategory":2,"la1":30.2991,"la2":30.254,"lo1":-89.0895,"lo2":-89.0444,"dy":0.0017,"dx":0.0017,"nx":28,"ny":28,"refTime":"2023-04-29T21:00:00:Z","depth":"2","parameterNumber":3,"parameterNumberName":"V-component_of_CURRENTS"},"data":[0,0,0,0,0,0,0,0,0,0,0,0,0,0,0,0,0,0,0,0,0,0,0,0,0,0,0,0,0,0,0,0,0,0,0,0,0,0,0,0,0,0,0,0,0,0,0,0,0,0,0,0,0,0,0,0,0,0,-0.0325,-0.0329,0,-0.0513,-0.0512,-0.0512,-0.0598,-0.0601,-0.0604,-0.0607,-0.0775,-0.0777,-0.0778,0,0,0,0,0,0,0,0,0,0,0,0,0,0.0262,0.0253,-0.0324,-0.033,-0.0335,-0.0513,-0.0512,-0.0512,-0.0598,-0.0601,-0.0605,-0.0608,-0.0774,-0.0776,-0.0779,0,0,0,0,0,0,0,0,0,0,0,0,0,0.0065,0.025,-0.0323,-0.0424,-0.0438,-0.0513,-0.0512,-0.0512,-0.0597,-0.0602,-0.0606,-0.061,-0.0774,-0.0776,-0.0779,-0.0707,0,0,-0.0787,-0.0788,0,0,0,0,0,0,0,0,0.0076,0.0048,-0.0404,-0.0418,-0.0434,-0.0567,-0.037,-0.0588,-0.0596,-0.0501,-0.0607,-0.0612,-0.0722,-0.0729,-0.0707,-0.0715,-0.0722,-0.0787,-0.0789,-0.079,-0.079,0,0,0,0,0,0,0,0.009,0.0057,-0.0364,-0.041,-0.0429,-0.036,-0.0392,-0.0407,-0.0558,-0.0509,-0.0525,-0.0598,-0.0726,-0.0704,-0.0712,-0.0724,-0.0787,-0.0789,-0.0791,-0.0792,-0.0802,-0.0801,0,0,0,0,0,0,0.0032,0.0068,-0.0359,-0.0374,-0.0222,-0.0371,-0.0404,-0.0491,-0.0559,-0.0583,-0.0594,-0.0602,-0.0697,-0.0709,-0.0719,-0.0705,-0.079,-0.0792,-0.0794,-0.0803,-0.0802,-0.08,0,0,0,0,0,0,0.0046,-0.0004,-0.0352,-0.0182,-0.0226,-0.0382,-0.0475,-0.0494,-0.0513,-0.063,-0.0648,-0.0605,-0.0701,-0.0715,-0.0744,-0.0711,-0.0793,-0.0796,-0.0805,-0.0803,-0.0801,-0.0636,0,0,0,0,0,0,0.0064,0.0003,-0.0073,-0.0187,-0.024,-0.0372,-0.0475,-0.0495,-0.0567,-0.0577,-0.0644,-0.0662,-0.0706,-0.074,-0.0747,-0.0716,-0.0798,-0.0806,-0.0804,-0.0801,-0.0643,-0.0628,-0.0616,0,0,0,0,0,0.0086,-0.0017,-0.0075,-0.0129,-0.0342,-0.0373,-0.0383,-0.0486,-0.0563,-0.0522,-0.06,-0.0661,-0.0731,-0.0739,-0.0748,-0.0718,-0.0807,-0.0804,-0.0802,-0.0649,-0.0631,-0.0616,0,0,0,0,0,0,0.0189,-0.0042,-0.0107,-0.028,-0.0312,-0.04,-0.0434,-0.0485,-0.0507,-0.0537,-0.0631,-0.065,-0.0664,-0.0713,-0.0721,-0.0717,-0.0783,-0.0782,-0.0664,-0.0648,-0.0635,-0.0589,-0.08,0,0,0,0,0,0.0172,0.0049,-0.0095,-0.0209,-0.0245,-0.0326,-0.0366,-0.0404,-0.0464,-0.048,-0.0545,-0.0613,-0.0645,-0.0669,-0.0697,-0.0682,-0.0725,-0.0676,-0.0662,-0.065,-0.0621,-0.0639,-0.0623,-0.0791,-0.0791,-0.0791,0,0,0.0199,0.0033,-0.0023,-0.0191,-0.024,-0.0242,-0.0349,-0.0386,-0.0379,-0.0493,-0.0508,-0.0562,-0.0632,-0.0619,-0.0631,-0.0664,-0.063,-0.0646,-0.0635,-0.0612,-0.0634,-0.0617,-0.0603,-0.0789,-0.0789,-0.0789,0,0,0.0223,0.0039,-0.0018,-0.0045,-0.0154,-0.0194,-0.0207,-0.0278,-0.0304,-0.0315,-0.0402,-0.043,-0.0498,-0.0513,-0.0542,-0.0469,-0.0557,-0.0502,-0.0393,-0.041,-0.0396,-0.0384,-0.0432,-0.0425,-0.0496,-0.0495,-0.0495,0,0.0252,0.0147,-0.001,-0.0042,-0.0068,-0.0171,-0.0136,-0.0164,-0.0225,-0.0226,-0.031,-0.0373,-0.0438,-0.0409,-0.0394,-0.0433,-0.0476,-0.0445,-0.0389,-0.0378,-0.0368,-0.0421,-0.0416,-0.0487,-0.0488,-0.0489,-0.049,0,0.0296,0.0215,0.0192,0.0101,0.0078,0.0098,0.0019,0.0021,-0.006,-0.0092,-0.0099,-0.0176,-0.0208,-0.0241,-0.0303,-0.0254,-0.0319,-0.0367,-0.0421,-0.0341,-0.0403,-0.04,-0.0475,-0.0478,-0.048,-0.0483,0,0,0.0374,0.0244,0.0254,0.0253,0.0166,0.0172,0.0171,0.0174,0.0189,0.0118,0.0144,0.0079,0.0029,-0.0004,-0.0075,-0.0099,-0.0086,-0.0198,-0.0203,-0.0229,-0.0149,-0.0172,-0.0173,-0.0129,-0.0127,-0.0126,-0.0225,0,0.0484,0.0478,0.0381,0.0447,0.045,0.0373,0.0391,0.0376,0.0324,0.0329,0.0244,0.0235,0.0118,0.0109,0.0075,-0.0042,-0.007,-0.0056,-0.0237,-0.0242,-0.0257,-0.0166,-0.0133,-0.0214,-0.0223,-0.0223,-0.0222,0,0.0587,0.0556,0.0632,0.0603,0.0605,0.0635,0.0659,0.067,0.0636,0.0593,0.0564,0.0472,0.044,0.0313,0.0178,0.0187,0.0046,-0.0063,-0.0071,-0.0139,-0.0257,-0.0296,-0.0211,-0.0219,-0.022,-0.022,-0.022,0,0.0753,0.0738,0.0806,0.0809,0.0768,0.0802,0.0796,0.0771,0.0785,0.0774,0.0771,0.0699,0.0653,0.0499,0.0254,0.0219,0.0079,-0.0001,-0.0152,-0.0159,-0.0185,-0.0195,-0.008,-0.008,-0.008,-0.008,-0.0079,0,0.088,0.093,0.0896,0.0939,0.103,0.0956,0.1042,0.1025,0.1014,0.1054,0.0932,0.0935,0.0694,0.056,0.0338,0.0112,0.0144,-0.0099,-0.0161,-0.0131,-0.0134,-0.0186,-0.0197,-0.0083,-0.0083,-0.0082,-0.0081,0,0.1002,0.1,0.1062,0.1078,0.1094,0.1158,0.1157,0.1206,0.1192,0.1239,0.1238,0.1113,0.0944,0.0685,0.0421,0.0224,0.0006,-0.009,-0.0052,-0.0105,-0.0249,-0.0251,-0.0249,-0.025,-0.0251,-0.0251,-0.0252,0,0.1041,0.1092,0.117,0.122,0.1221,0.1285,0.1321,0.1304,0.1339,0.1342,0.1376,0.1241,0.1151,0.0767,0.0409,0.006,-0.0005,-0.0142,-0.0185,-0.0193,-0.0255,-0.0255,-0.0256,-0.0181,-0.0181,-0.0181,-0.0181,0,0.1089,0.1137,0.1186,0.131,0.1375,0.1435,0.1482,0.1541,0.1538,0.158,0.16,0.1544,0.1186,0.0847,0.0381,0.0141,-0.0076,-0.0153,-0.0144,-0.0134,-0.0134,-0.0194,-0.0195,-0.0181,-0.0181,-0.0181,-0.0181,-0.0181,0.1104,0.1159,0.1249,0.1358,0.1447,0.1549,0.1617,0.1674,0.1758,0.1818,0.1761,0.1685,0.1321,0.0725,0.0322,-0.0099,-0.0087,-0.0239,-0.0237,-0.0235,-0.0199,-0.02,-0.0255,-0.0256,-0.0256,-0.0256,-0.0257,0,0.1089,0.1159,0.1271,0.1404,0.1504,0.1556,0.1687,0.1762,0.1879,0.1932,0.1941,0.1594,0.1212,0.0781,0.0163,-0.0198,-0.0232,-0.0317,-0.0279,-0.0275,-0.0272,-0.0238,-0.0305,-0.0307,-0.0308,-0.0309,0,0,0.1077,0.1162,0.1234,0.1396,0.1504,0.1647,0.1736,0.1877,0.1956,0.2009,0.1962,0.1864,0.1352,0.0898,0.0404,0.0046,-0.0033,-0.0026,0.0056,0.0164,0.0171,-0.0181,-0.0117,0,0,0,0,0]}],[{"header":{"parameterUnit":"m.s-1","parameterCategory":2,"la1":30.2991,"la2":30.254,"lo1":-89.0895,"lo2":-89.0444,"dy":0.0017,"dx":0.0017,"nx":28,"ny":28,"refTime":"2023-04-29T21:00:00:Z","depth":"4","parameterNumber":2,"parameterNumberName":"U-component_of_CURRENTS"},"data":[0,0,0,0,0,0,0,0,0,0,0,0,0,0,0,0,0,0,0,0,0,0,0,0,0,0,0,0,0,0,0,0,0,0,0,0,0,0,0,0,0,0,0,0,0,0,0,0,0,0,0,0,0,0,0,0,0,0,0.0674,0.0675,0,0.0663,0.0661,0.0659,0.0601,0.0601,0.0602,0.0602,0.1057,0.1068,0.108,0,0,0,0,0,0,0,0,0,0,0,0,0,0.048,0.0483,0.0674,0.0675,0.0677,0.0663,0.0661,0.0659,0.0601,0.0601,0.0602,0.0602,0.1053,0.1067,0.1081,0,0,0,0,0,0,0,0,0,0,0,0,0,0.0508,0.0484,0.0673,0.066,0.0661,0.0663,0.0661,0.0658,0.0601,0.0601,0.0602,0.0603,0.1048,0.1066,0.1083,0.1181,0,0,0.1137,0.1145,0,0,0,0,0,0,0,0,0.0507,0.0513,0.0661,0.0662,0.0662,0.0651,0.076,0.0863,0.0601,0.0603,0.0602,0.0603,0.0977,0.1,0.0963,0.1202,0.1221,0.1138,0.1149,0.1157,0.1162,0,0,0,0,0,0,0,0.0505,0.0512,0.065,0.0663,0.0664,0.06,0.0604,0.0775,0.0781,0.0603,0.0604,0.0633,0.0977,0.0945,0.0975,0.1228,0.1138,0.1154,0.1165,0.1171,0.1915,0.1924,0,0,0,0,0,0,0.0554,0.0512,0.0651,0.0651,0.0606,0.0605,0.0609,0.0638,0.0769,0.0791,0.0632,0.0631,0.0914,0.0954,0.0992,0.1423,0.1157,0.1173,0.1183,0.1906,0.1917,0.1927,0,0,0,0,0,0,0.055,0.0566,0.0651,0.0596,0.0605,0.0611,0.0642,0.0638,0.0647,0.0789,0.0816,0.0654,0.0916,0.0967,0.1257,0.143,0.1181,0.1197,0.1895,0.1909,0.1922,0.2094,0,0,0,0,0,0,0.0544,0.0564,0.0612,0.06,0.0611,0.07,0.0644,0.0638,0.0671,0.0669,0.0819,0.0856,0.0921,0.1231,0.1275,0.145,0.1211,0.1884,0.1902,0.1918,0.2077,0.2112,0.2142,0,0,0,0,0,0.0537,0.0596,0.0614,0.0633,0.0673,0.0705,0.0703,0.0694,0.0673,0.0696,0.0853,0.0853,0.1371,0.1253,0.1302,0.1486,0.1875,0.1896,0.1916,0.2062,0.2105,0.2141,0,0,0,0,0,0,0.0583,0.0597,0.0616,0.0694,0.0728,0.0704,0.0715,0.0722,0.0835,0.0881,0.0971,0.1026,0.1349,0.1403,0.127,0.1757,0.1625,0.1656,0.1719,0.1761,0.1793,0.1757,0.1226,0,0,0,0,0,0.0613,0.0622,0.067,0.0732,0.074,0.0734,0.075,0.0782,0.0874,0.0912,0.107,0.1258,0.146,0.1594,0.178,0.2044,0.1945,0.22,0.2233,0.2259,0.2271,0.2293,0.2324,0.1995,0.1995,0.1994,0,0,0.0617,0.0662,0.065,0.0737,0.0728,0.078,0.0738,0.0806,0.0923,0.0971,0.1225,0.1394,0.156,0.1865,0.2013,0.194,0.2287,0.2285,0.2306,0.2304,0.2317,0.2348,0.2374,0.2009,0.2006,0.2004,0,0,0.0656,0.0695,0.0711,0.0758,0.0844,0.0851,0.089,0.0976,0.1075,0.1356,0.1432,0.169,0.2016,0.2153,0.2255,0.2582,0.246,0.2685,0.2828,0.2851,0.2874,0.2894,0.27,0.2701,0.2698,0.2698,0.2699,0,0.0735,0.0781,0.0731,0.0808,0.0867,0.0888,0.0974,0.1066,0.1288,0.1446,0.1494,0.1982,0.2138,0.243,0.2585,0.2651,0.2575,0.2648,0.288,0.2899,0.2916,0.2713,0.2712,0.2709,0.2708,0.2707,0.2706,0,0.0757,0.086,0.088,0.0962,0.0982,0.1102,0.1199,0.1392,0.1554,0.1677,0.2078,0.2292,0.2575,0.2689,0.2766,0.302,0.2886,0.2901,0.2741,0.2957,0.2731,0.2726,0.2725,0.2721,0.2718,0.2715,0,0,0.0906,0.0912,0.095,0.1046,0.1128,0.1181,0.1383,0.1606,0.1799,0.2087,0.2367,0.2736,0.2851,0.2977,0.3097,0.3157,0.3214,0.313,0.3126,0.2863,0.3117,0.3032,0.3015,0.3281,0.3285,0.3288,0.2863,0,0.1039,0.1129,0.1127,0.1311,0.1368,0.1491,0.1655,0.1856,0.2071,0.2374,0.261,0.2914,0.2946,0.3154,0.3225,0.3293,0.3234,0.3317,0.3013,0.2999,0.2843,0.3024,0.33,0.2859,0.2858,0.2857,0.2856,0,0.1142,0.12,0.1257,0.1523,0.1568,0.1719,0.2004,0.2204,0.2527,0.2707,0.2973,0.3119,0.3368,0.3348,0.3371,0.3437,0.3297,0.3232,0.3214,0.3081,0.2916,0.2639,0.2845,0.2846,0.2847,0.2848,0.2848,0,0.1192,0.141,0.1433,0.149,0.166,0.1888,0.2134,0.2366,0.2524,0.2954,0.3054,0.3328,0.3461,0.3451,0.3408,0.3408,0.3314,0.3254,0.2938,0.2916,0.3019,0.3003,0.3137,0.3138,0.3139,0.314,0.3141,0,0.1356,0.1505,0.1509,0.1583,0.1837,0.1974,0.23,0.2606,0.2852,0.2969,0.3254,0.3318,0.351,0.3494,0.3425,0.3201,0.3288,0.2969,0.2869,0.3089,0.3088,0.3003,0.2993,0.3124,0.3127,0.3131,0.3133,0,0.1422,0.1372,0.1542,0.1749,0.1838,0.2074,0.2434,0.259,0.2857,0.3017,0.3144,0.3304,0.3306,0.334,0.3275,0.3131,0.3004,0.2841,0.298,0.289,0.2515,0.2521,0.2397,0.2392,0.2388,0.2384,0.2381,0,0.1433,0.1423,0.1599,0.1638,0.1804,0.2099,0.2207,0.2589,0.2677,0.2917,0.294,0.3046,0.3118,0.2901,0.2996,0.2812,0.2754,0.2591,0.2667,0.2558,0.2471,0.2483,0.2494,0.2374,0.2373,0.2372,0.2371,0,0.1471,0.1479,0.1554,0.1622,0.1767,0.1899,0.2204,0.2224,0.2505,0.2684,0.271,0.2756,0.2699,0.2736,0.2659,0.2523,0.2742,0.2544,0.2548,0.2616,0.2528,0.2449,0.2465,0.2356,0.2358,0.236,0.236,0,0.1479,0.1528,0.1491,0.1606,0.1697,0.172,0.1927,0.201,0.2131,0.2405,0.237,0.2506,0.2644,0.2561,0.2503,0.2449,0.2331,0.2215,0.2234,0.225,0.2438,0.2319,0.2009,0,0,0,0,0,0.1421,0.1396,0.146,0.1521,0.1602,0.1665,0.1805,0.1921,0.2136,0.2082,0.2253,0.2237,0.2227,0.2289,0.2179,0.2342,0.2307,0.2199,0.2176,0.2274,0.2291,0.2547,0,0,0,0,0,0,0.1337,0.1365,0.1394,0.1347,0.137,0.1426,0.1523,0.1655,0.1681,0.191,0.1923,0.2089,0.2109,0.2263,0.2134,0.2144,0.2075,0.2284,0.2277,0.2265,0.228,0.2294,0.2563,0,0,0,0,0]},{"header":{"parameterUnit":"m.s-1","parameterCategory":2,"la1":30.2991,"la2":30.254,"lo1":-89.0895,"lo2":-89.0444,"dy":0.0017,"dx":0.0017,"nx":28,"ny":28,"refTime":"2023-04-29T21:00:00:Z","depth":"4","parameterNumber":3,"parameterNumberName":"V-component_of_CURRENTS"},"data":[0,0,0,0,0,0,0,0,0,0,0,0,0,0,0,0,0,0,0,0,0,0,0,0,0,0,0,0,0,0,0,0,0,0,0,0,0,0,0,0,0,0,0,0,0,0,0,0,0,0,0,0,0,0,0,0,0,0,0.078,0.078,0,0.0626,0.0623,0.062,0.0571,0.0573,0.0575,0.0577,0.0689,0.069,0.0692,0,0,0,0,0,0,0,0,0,0,0,0,0,0.0731,0.0733,0.078,0.078,0.0779,0.0626,0.0623,0.0619,0.057,0.0573,0.0575,0.0578,0.0689,0.069,0.0692,0,0,0,0,0,0,0,0,0,0,0,0,0,0.0669,0.0734,0.078,0.0747,0.0744,0.0627,0.0623,0.0618,0.057,0.0573,0.0576,0.0579,0.0689,0.069,0.0692,0.064,0,0,0.0697,0.0697,0,0,0,0,0,0,0,0,0.0673,0.0669,0.0753,0.0749,0.0746,0.0634,0.0647,0.0644,0.0569,0.062,0.0577,0.058,0.0703,0.0703,0.0643,0.0645,0.065,0.0697,0.0698,0.0699,0.0699,0,0,0,0,0,0,0,0.0678,0.0674,0.0704,0.0752,0.0748,0.0638,0.0633,0.0642,0.064,0.0616,0.0616,0.0621,0.0701,0.0641,0.0646,0.0652,0.0697,0.0698,0.0699,0.07,0.0817,0.0819,0,0,0,0,0,0,0.0739,0.068,0.0709,0.0701,0.0733,0.0638,0.0632,0.0654,0.0634,0.0636,0.0618,0.0619,0.0636,0.0644,0.0651,0.083,0.0699,0.07,0.0701,0.0815,0.0817,0.082,0,0,0,0,0,0,0.0739,0.0744,0.0716,0.0697,0.0688,0.064,0.0662,0.065,0.0632,0.0635,0.064,0.0621,0.0639,0.0648,0.0724,0.0826,0.0701,0.0702,0.0812,0.0816,0.0819,0.1037,0,0,0,0,0,0,0.0738,0.0745,0.0792,0.0702,0.0692,0.0698,0.066,0.0645,0.0636,0.0636,0.0639,0.0649,0.0642,0.0722,0.0726,0.0826,0.0704,0.081,0.0814,0.0818,0.1027,0.1047,0.1064,0,0,0,0,0,0.0737,0.0794,0.0795,0.08,0.0757,0.0701,0.0684,0.0646,0.0634,0.0637,0.0657,0.0651,0.075,0.0725,0.0729,0.0833,0.0808,0.0813,0.0817,0.1018,0.1043,0.1064,0,0,0,0,0,0,0.0796,0.0793,0.0793,0.0849,0.0806,0.07,0.0686,0.0665,0.0662,0.0692,0.0675,0.0687,0.0797,0.0762,0.0734,0.087,0.0778,0.0784,0.093,0.0953,0.0971,0.0909,0.0705,0,0,0,0,0,0.0835,0.0874,0.0838,0.0875,0.0849,0.0768,0.0746,0.0742,0.0722,0.0719,0.0755,0.0777,0.0801,0.0839,0.0861,0.0927,0.0771,0.0992,0.1011,0.1027,0.0975,0.078,0.0774,0.0836,0.0836,0.0835,0,0,0.084,0.0869,0.0874,0.089,0.0824,0.0792,0.0757,0.0752,0.0782,0.0742,0.0826,0.0857,0.0831,0.0926,0.097,0.0925,0.0944,0.1033,0.1048,0.0985,0.0783,0.0776,0.077,0.0839,0.0838,0.0838,0,0,0.086,0.0907,0.0921,0.0911,0.0905,0.0852,0.0867,0.0838,0.0882,0.0973,0.0949,0.1008,0.1093,0.1067,0.1059,0.1171,0.1049,0.1236,0.129,0.1106,0.1097,0.1087,0.0945,0.092,0.1246,0.1247,0.1247,0,0.0867,0.0927,0.091,0.0928,0.0917,0.0882,0.087,0.089,0.0933,0.0993,0.1056,0.1111,0.1132,0.1128,0.1206,0.1214,0.1099,0.1224,0.1125,0.1112,0.1098,0.0953,0.0923,0.1258,0.1257,0.1255,0.1254,0,0.0882,0.0944,0.094,0.0948,0.092,0.0933,0.0938,0.1028,0.111,0.1139,0.1257,0.1268,0.1275,0.1337,0.1329,0.1274,0.1226,0.1173,0.1064,0.1104,0.0951,0.0916,0.1274,0.127,0.1266,0.1264,0,0,0.0858,0.0936,0.0943,0.0962,0.0965,0.0931,0.1021,0.1065,0.1128,0.1262,0.1311,0.1401,0.1409,0.1389,0.1381,0.1269,0.1144,0.122,0.1205,0.1071,0.0763,0.0822,0.0787,0.1085,0.1079,0.1074,0.0718,0,0.0869,0.0932,0.0962,0.0971,0.0965,0.1007,0.1057,0.1124,0.1228,0.1304,0.1342,0.1371,0.1419,0.1439,0.1345,0.1186,0.1051,0.1245,0.0746,0.073,0.0769,0.0747,0.1055,0.0691,0.0682,0.0676,0.0672,0,0.0864,0.0931,0.0954,0.1019,0.1008,0.1015,0.1084,0.1152,0.1251,0.1355,0.1395,0.1387,0.1305,0.1312,0.1008,0.1142,0.0959,0.0824,0.0805,0.0733,0.072,0.0622,0.0605,0.061,0.0615,0.062,0.0624,0,0.0828,0.0914,0.0944,0.0962,0.1013,0.1072,0.1102,0.1186,0.1259,0.1341,0.1373,0.1294,0.1215,0.1004,0.0824,0.0883,0.0445,0.0457,0.0312,0.0314,0.0269,0.0282,0.014,0.014,0.0141,0.0142,0.0143,0,0.0832,0.0869,0.0951,0.0982,0.1061,0.1054,0.1128,0.1242,0.1281,0.1323,0.1354,0.1321,0.1123,0.091,0.0748,0.0446,0.0354,0.0277,0.0204,0.0385,0.0414,0.0247,0.0264,0.0129,0.0132,0.0134,0.0137,0,0.0781,0.0841,0.0912,0.1008,0.1056,0.1104,0.1178,0.1219,0.1271,0.1313,0.1314,0.1246,0.1009,0.0797,0.0408,0.031,0.0032,-0.0079,0.0143,0.0095,0.0042,0.0075,-0.0294,-0.0295,-0.0297,-0.0298,-0.0298,0,0.0763,0.0793,0.0942,0.101,0.1076,0.1148,0.1204,0.1268,0.13,0.128,0.1281,0.1064,0.101,0.052,0.0306,-0.0062,-0.0095,-0.0256,-0.0102,0.002,-0.0015,0.002,0.0054,-0.03,-0.0301,-0.0301,-0.0301,0,0.0754,0.0808,0.0875,0.103,0.1116,0.1196,0.1278,0.1289,0.1324,0.1323,0.1244,0.1066,0.0784,0.0513,0.021,-0.0034,-0.0134,-0.0269,-0.0267,-0.0124,0.0008,-0.0018,0.0017,-0.0305,-0.0305,-0.0304,-0.0304,0,0.0754,0.0813,0.0911,0.1037,0.1148,0.1237,0.1276,0.1275,0.1294,0.1279,0.1224,0.1011,0.086,0.0516,0.0258,0.0025,-0.0015,-0.0068,-0.0077,-0.0076,0.0149,0.0358,0.0045,0,0,0,0,0,0.0762,0.0824,0.0916,0.1058,0.1144,0.123,0.1314,0.1316,0.1327,0.1284,0.1267,0.1052,0.0706,0.0552,0.0321,0.0225,-0.0071,-0.0054,-0.0139,-0.0328,-0.0323,-0.0085,0,0,0,0,0,0,0.0768,0.0859,0.0905,0.1026,0.1113,0.1218,0.1287,0.1297,0.1277,0.1263,0.1081,0.1001,0.0656,0.0833,0.0317,0.0245,0.0163,-0.0217,-0.0222,-0.0331,-0.0326,-0.0323,-0.0076,0,0,0,0,0]}]]